[[{"header":{"parameterUnit":"m.s-1","parameterCategory":1,"la1":30.2991,"la2":30.254,"lo1":-89.0895,"lo2":-89.0444,"dy":0.0017,"dx":0.0017,"nx":28,"ny":28,"refTime":"2025-06-17T21:00:00:Z","depth":0,"parameterNumber":2,"parameterNumberName":"U-component_of_WINDS"},"data":[0,0,0,0,0,0,0,0,0,0,0,0,0,0,0,0,0,0,0,0,0,0,0,0,0,0,0,0,0,0,0,0,0,0,0,0,0,0,0,0,0,0,0,0,0,0,0,0,0,0,0,0,0,0,0,0,0,0,1.6253,1.6254,0,1.6303,1.6304,1.6304,1.6298,1.6298,1.6297,1.6296,1.6353,1.6356,1.6358,0,0,0,0,0,0,0,0,0,0,0,0,0,1.6156,1.6158,1.6253,1.6254,1.6254,1.6303,1.6304,1.6304,1.6299,1.6298,1.6297,1.6296,1.6353,1.6355,1.6358,0,0,0,0,0,0,0,0,0,0,0,0,0,1.6202,1.6159,1.6253,1.6257,1.6258,1.6303,1.6304,1.6305,1.6299,1.6298,1.6296,1.6295,1.6352,1.6355,1.6358,1.6404,0,0,1.6369,1.637,0,0,0,0,0,0,0,0,1.6199,1.6205,1.6256,1.6257,1.6258,1.6293,1.6291,1.6338,1.6299,1.6283,1.6296,1.6295,1.6335,1.6339,1.6352,1.6407,1.6409,1.6369,1.6371,1.6373,1.6374,0,0,0,0,0,0,0,1.6196,1.6203,1.6273,1.6257,1.6258,1.6258,1.6263,1.63,1.6316,1.6285,1.6284,1.629,1.6335,1.6348,1.6353,1.641,1.6369,1.6372,1.6374,1.6376,1.6503,1.6504,0,0,0,0,0,0,1.6191,1.62,1.6271,1.6274,1.6225,1.626,1.6266,1.6283,1.6315,1.6319,1.6291,1.629,1.6343,1.6349,1.6355,1.6409,1.6373,1.6376,1.6378,1.6502,1.6503,1.6505,0,0,0,0,0,0,1.6189,1.6197,1.6269,1.6237,1.6246,1.6263,1.6283,1.6285,1.6298,1.632,1.6323,1.6301,1.6342,1.635,1.6391,1.6411,1.6377,1.6381,1.65,1.6502,1.6504,1.6519,0,0,0,0,0,0,1.6186,1.6197,1.6214,1.6238,1.6248,1.6304,1.6284,1.6287,1.6303,1.6302,1.633,1.6334,1.6342,1.6386,1.6394,1.6415,1.6383,1.6499,1.6501,1.6503,1.6517,1.6521,1.6525,0,0,0,0,0,1.6183,1.6218,1.6215,1.6223,1.6269,1.6305,1.6311,1.6318,1.6305,1.6322,1.6336,1.6333,1.6407,1.639,1.64,1.6422,1.6497,1.65,1.6503,1.6515,1.652,1.6525,0,0,0,0,0,0,1.6199,1.6221,1.6218,1.6261,1.6281,1.6304,1.6326,1.6323,1.6349,1.6347,1.6355,1.6362,1.6403,1.6417,1.6397,1.6467,1.6451,1.6456,1.6456,1.6462,1.6466,1.6462,1.6386,0,0,0,0,0,1.6206,1.6232,1.6251,1.6287,1.6297,1.6309,1.6325,1.6328,1.635,1.6359,1.6375,1.6398,1.6426,1.6445,1.6472,1.6518,1.6524,1.6538,1.6542,1.6545,1.655,1.6574,1.658,1.6515,1.6515,1.6515,0,0,1.6225,1.624,1.6256,1.6291,1.6306,1.6333,1.6317,1.6347,1.6367,1.6364,1.6402,1.6415,1.6441,1.6484,1.6504,1.6497,1.6569,1.6549,1.6552,1.6555,1.6578,1.6584,1.6589,1.6517,1.6516,1.6516,0,0,1.627,1.6285,1.6315,1.633,1.6353,1.636,1.6368,1.639,1.6398,1.6436,1.6434,1.6459,1.6507,1.6525,1.654,1.6589,1.6587,1.6598,1.662,1.6643,1.6648,1.6653,1.667,1.6676,1.6602,1.6602,1.6602,0,1.629,1.6329,1.6332,1.6361,1.6376,1.6372,1.6403,1.6418,1.645,1.6461,1.6451,1.651,1.6527,1.6574,1.6585,1.6598,1.6607,1.6595,1.6647,1.6652,1.6656,1.6672,1.6678,1.6603,1.6603,1.6603,1.6603,0,1.6352,1.6379,1.6401,1.6428,1.6445,1.6476,1.6484,1.6502,1.6503,1.6511,1.655,1.657,1.66,1.6611,1.6614,1.6657,1.6652,1.6645,1.6629,1.6663,1.6678,1.6685,1.6605,1.6605,1.6604,1.6604,0,0,1.6411,1.6437,1.6445,1.6456,1.6479,1.6501,1.653,1.6557,1.6571,1.6593,1.6618,1.6657,1.665,1.6667,1.6671,1.6692,1.6728,1.6682,1.6683,1.6689,1.6776,1.6781,1.6788,1.6726,1.6727,1.6728,1.6774,0,1.6459,1.6509,1.6511,1.6558,1.6582,1.6576,1.6602,1.6619,1.6628,1.6651,1.6661,1.6688,1.6677,1.6687,1.6707,1.6719,1.6745,1.6716,1.675,1.6751,1.6744,1.6796,1.6802,1.6844,1.678,1.6781,1.6781,0,1.6522,1.6541,1.6589,1.6606,1.6616,1.6639,1.6662,1.6684,1.6703,1.6708,1.6725,1.6726,1.6757,1.6739,1.6781,1.6761,1.6775,1.6783,1.6785,1.6789,1.6769,1.6801,1.6858,1.6864,1.6791,1.679,1.679,0,1.6559,1.6598,1.663,1.664,1.6661,1.6677,1.6687,1.6705,1.672,1.6741,1.6751,1.6776,1.679,1.681,1.6817,1.6804,1.6859,1.6842,1.6865,1.6864,1.6877,1.6877,1.6937,1.6886,1.6886,1.6886,1.6886,0,1.6612,1.6641,1.6647,1.6667,1.67,1.6702,1.6734,1.6744,1.6759,1.6781,1.6779,1.6801,1.6809,1.6832,1.6838,1.6871,1.6878,1.6883,1.6885,1.6884,1.6883,1.6893,1.6891,1.6888,1.6887,1.6887,1.6887,0,1.666,1.6665,1.67,1.6716,1.672,1.6743,1.6757,1.6777,1.6784,1.6812,1.6819,1.683,1.6857,1.6866,1.6899,1.6903,1.6942,1.6941,1.6935,1.6935,1.6956,1.6954,1.7026,1.7035,1.6978,1.6979,1.6979,0,1.6694,1.6715,1.6732,1.6745,1.6755,1.6778,1.6792,1.6795,1.681,1.6832,1.6849,1.6875,1.6895,1.6938,1.695,1.6975,1.6975,1.6998,1.6979,1.6976,1.6975,1.6973,1.6975,1.7002,1.7003,1.7003,1.7004,0,1.6752,1.6753,1.6772,1.6792,1.6809,1.6825,1.6842,1.6853,1.6858,1.6876,1.6901,1.6917,1.6949,1.6974,1.6999,1.701,1.7008,1.7009,1.7015,1.7015,1.701,1.7012,1.6944,1.7008,1.7007,1.7007,1.7007,1.7007,1.6794,1.6812,1.6826,1.6847,1.6859,1.6873,1.6891,1.6899,1.692,1.6944,1.6945,1.6972,1.699,1.7022,1.7034,1.7057,1.705,1.706,1.7062,1.7064,1.7066,1.7006,1.7061,1.7061,1.7061,1.7061,1.7061,0,1.6852,1.6859,1.6879,1.69,1.6916,1.691,1.6926,1.6941,1.6965,1.698,1.6999,1.7028,1.7052,1.7064,1.7088,1.7104,1.7103,1.711,1.7109,1.7111,1.707,1.7062,1.711,1.711,1.711,1.711,1.711,1.711,1.6884,1.6914,1.6916,1.6951,1.6959,1.6984,1.6994,1.7007,1.7019,1.705,1.7068,1.7075,1.709,1.7114,1.7136,1.7139,1.7148,1.7155,1.7158,1.712,1.7115,1.711,1.7102,1.7157,1.7157,1.7197,1.7197,1.7198]},{"header":{"parameterUnit":"m.s-1","parameterCategory":1,"la1":30.2991,"la2":30.254,"lo1":-89.0895,"lo2":-89.0444,"dy":0.0017,"dx":0.0017,"nx":28,"ny":28,"refTime":"2025-06-17T21:00:00:Z","depth":0,"parameterNumber":3,"parameterNumberName":"V-component_of_WINDS"},"data":[0,0,0,0,0,0,0,0,0,0,0,0,0,0,0,0,0,0,0,0,0,0,0,0,0,0,0,0,0,0,0,0,0,0,0,0,0,0,0,0,0,0,0,0,0,0,0,0,0,0,0,0,0,0,0,0,0,0,2.2294,2.2293,0,2.2258,2.2257,2.2257,2.2256,2.2257,2.2257,2.2258,2.2219,2.2218,2.2216,0,0,0,0,0,0,0,0,0,0,0,0,0,2.2363,2.2361,2.2294,2.2293,2.2293,2.2258,2.2257,2.2257,2.2256,2.2257,2.2257,2.2258,2.222,2.2218,2.2216,0,0,0,0,0,0,0,0,0,0,0,0,0,2.233,2.2361,2.2294,2.2288,2.2287,2.2258,2.2257,2.2256,2.2256,2.2257,2.2257,2.2258,2.222,2.2218,2.2216,2.2188,0,0,2.2209,2.2208,0,0,0,0,0,0,0,0,2.2332,2.2328,2.229,2.2289,2.2288,2.2262,2.2267,2.2234,2.2256,2.2268,2.2258,2.2258,2.2233,2.223,2.2221,2.2187,2.2185,2.2209,2.2208,2.2207,2.2206,0,0,0,0,0,0,0,2.2334,2.2329,2.2279,2.2289,2.2288,2.2288,2.2284,2.2261,2.2247,2.2267,2.2267,2.2263,2.2232,2.2223,2.222,2.2184,2.2209,2.2207,2.2206,2.2205,2.2128,2.2128,0,0,0,0,0,0,2.2338,2.2331,2.228,2.2278,2.2312,2.2286,2.2282,2.227,2.2247,2.2244,2.2262,2.2263,2.2227,2.2223,2.2219,2.2187,2.2207,2.2205,2.2203,2.2129,2.2128,2.2127,0,0,0,0,0,0,2.2339,2.2333,2.2282,2.2305,2.2298,2.2284,2.227,2.2268,2.2259,2.2243,2.2241,2.2255,2.2227,2.2222,2.2197,2.2185,2.2204,2.2202,2.213,2.2129,2.2128,2.2121,0,0,0,0,0,0,2.2341,2.2334,2.2323,2.2304,2.2297,2.226,2.227,2.2267,2.2256,2.2256,2.2236,2.2234,2.2227,2.22,2.2195,2.2183,2.22,2.2131,2.2129,2.2128,2.2123,2.212,2.2118,0,0,0,0,0,2.2343,2.2322,2.2322,2.2316,2.2283,2.2259,2.2255,2.2248,2.2255,2.2244,2.2234,2.2234,2.2188,2.2197,2.2191,2.2179,2.2131,2.213,2.2128,2.2124,2.2121,2.2118,0,0,0,0,0,0,2.2338,2.2319,2.2319,2.2291,2.2277,2.2259,2.2245,2.2245,2.2228,2.223,2.2222,2.2217,2.2192,2.2183,2.2194,2.2152,2.216,2.2157,2.2159,2.2156,2.2154,2.2157,2.2198,0,0,0,0,0,2.2333,2.2316,2.23,2.2277,2.227,2.2259,2.2248,2.2245,2.223,2.2223,2.2211,2.2197,2.2179,2.2167,2.215,2.2122,2.2118,2.211,2.2108,2.2106,2.2104,2.209,2.2087,2.2122,2.2122,2.2122,0,0,2.2323,2.2311,2.23,2.2275,2.2264,2.2246,2.2254,2.2234,2.2221,2.222,2.2196,2.2187,2.217,2.2144,2.2132,2.2135,2.2094,2.2104,2.2103,2.2101,2.2088,2.2085,2.2082,2.2121,2.2121,2.2121,0,0,2.2297,2.2285,2.2265,2.2255,2.2238,2.2231,2.2227,2.221,2.2204,2.218,2.218,2.2164,2.2133,2.2122,2.2112,2.2084,2.2084,2.2079,2.2067,2.2054,2.2052,2.2049,2.204,2.2037,2.2077,2.2076,2.2076,0,2.2286,2.226,2.2255,2.2236,2.2226,2.2226,2.2206,2.2195,2.2174,2.2167,2.2171,2.2134,2.2122,2.2095,2.2088,2.208,2.2075,2.2081,2.2052,2.205,2.2047,2.2039,2.2035,2.2076,2.2076,2.2076,2.2076,0,2.2249,2.2231,2.2216,2.2197,2.2185,2.2166,2.2158,2.2147,2.2145,2.2139,2.2115,2.2102,2.2083,2.2076,2.2073,2.2048,2.2051,2.2054,2.2062,2.2044,2.2036,2.2032,2.2075,2.2075,2.2076,2.2076,0,0,2.2215,2.2195,2.219,2.2182,2.2166,2.2152,2.2133,2.2116,2.2106,2.2092,2.2077,2.2052,2.2056,2.2045,2.2041,2.203,2.201,2.2034,2.2034,2.2031,2.1984,2.1981,2.1978,2.2011,2.201,2.201,2.1985,0,2.2187,2.2154,2.2151,2.2122,2.2106,2.2107,2.2091,2.208,2.2073,2.2059,2.2052,2.2035,2.2041,2.2035,2.2023,2.2015,2.2001,2.2017,2.1997,2.1996,2.2001,2.1973,2.197,2.1948,2.1982,2.1981,2.1981,0,2.2148,2.2135,2.2105,2.2093,2.2086,2.2072,2.2057,2.2043,2.2031,2.2027,2.2017,2.2015,2.1997,2.2007,2.1982,2.1993,2.1985,2.198,2.1979,2.1976,2.1987,2.197,2.194,2.1937,2.1976,2.1976,2.1976,0,2.2128,2.2102,2.2082,2.2075,2.206,2.205,2.2044,2.2032,2.2022,2.2009,2.2003,2.1988,2.1979,2.1968,2.1962,2.197,2.1939,2.1947,2.1936,2.1936,2.1928,2.1929,2.1897,2.1923,2.1923,2.1923,2.1923,0,2.2097,2.2078,2.2073,2.206,2.204,2.2037,2.2017,2.2011,2.2001,2.1988,2.1988,2.1975,2.1969,2.1956,2.1952,2.1933,2.1929,2.1926,2.1925,2.1926,2.1926,2.192,2.1921,2.1922,2.1922,2.1922,2.1923,0,2.2069,2.2065,2.2043,2.2031,2.2028,2.2014,2.2005,2.1993,2.1988,2.1971,2.1967,2.1959,2.1944,2.1938,2.1918,2.1916,2.1894,2.1894,2.1899,2.1898,2.1887,2.1889,2.185,2.1845,2.1875,2.1874,2.1874,0,2.2049,2.2036,2.2024,2.2016,2.2009,2.1995,2.1986,2.1983,2.1974,2.1961,2.195,2.1936,2.1923,2.1899,2.1891,2.1877,2.1877,2.1865,2.1875,2.1877,2.1878,2.1879,2.1878,2.1863,2.1862,2.1862,2.1862,0,2.2015,2.2014,2.2002,2.1989,2.1979,2.1968,2.1958,2.1951,2.1947,2.1937,2.1922,2.1912,2.1894,2.188,2.1866,2.1859,2.186,2.1859,2.1856,2.1856,2.186,2.1859,2.1894,2.186,2.186,2.186,2.186,2.186,2.1991,2.198,2.1971,2.1958,2.195,2.1942,2.1931,2.1926,2.1913,2.1899,2.1898,2.1882,2.1872,2.1854,2.1847,2.1835,2.1838,2.1833,2.1832,2.183,2.183,2.1862,2.1832,2.1832,2.1832,2.1832,2.1832,0,2.1957,2.1953,2.194,2.1928,2.1918,2.1921,2.1911,2.1902,2.1888,2.188,2.1868,2.1852,2.1839,2.1832,2.1819,2.181,2.1811,2.1807,2.1807,2.1806,2.1827,2.1832,2.1807,2.1807,2.1807,2.1807,2.1807,2.1807,2.1939,2.1921,2.1919,2.1898,2.1893,2.1879,2.1873,2.1865,2.1859,2.1841,2.1831,2.1826,2.1819,2.1805,2.1794,2.1792,2.1787,2.1784,2.1782,2.1802,2.1804,2.1807,2.1811,2.1782,2.1782,2.1762,2.1762,2.1762]}]]